TimeCST,TemperatureF,Dew PointF,Humidity,Sea Level PressureIn,VisibilityMPH,Wind Direction,Wind SpeedMPH,Gust SpeedMPH,PrecipitationIn,Events,Conditions,WindDirDegrees,DateUTC
12:54 AM,57.9,54.0,87,29.59,7.0,SE,11.5,-,N/A,,Clear,130,2012-11-10 06:54:00
1:54 AM,55.9,53.1,90,29.57,6.0,SE,9.2,-,N/A,,Clear,140,2012-11-10 07:54:00
2:54 AM,55.0,52.0,89,29.56,5.0,ESE,6.9,-,N/A,,Clear,120,2012-11-10 08:54:00
3:54 AM,55.0,52.0,89,29.54,5.0,ESE,3.5,-,N/A,,Clear,110,2012-11-10 09:54:00
4:54 AM,54.0,51.1,90,29.54,7.0,SSE,8.1,-,N/A,,Clear,150,2012-11-10 10:54:00
5:54 AM,59.0,53.1,81,29.53,10.0,SSE,13.8,-,N/A,,Clear,160,2012-11-10 11:54:00
6:54 AM,59.0,53.1,81,29.54,10.0,South,16.1,-,N/A,,Clear,170,2012-11-10 12:54:00
7:54 AM,60.1,53.1,78,29.56,10.0,South,11.5,-,N/A,,Clear,170,2012-11-10 13:54:00
8:54 AM,66.0,55.0,68,29.56,10.0,SSW,13.8,-,N/A,,Clear,200,2012-11-10 14:54:00
9:54 AM,66.9,53.1,61,29.57,10.0,WSW,13.8,26.5,N/A,,Clear,240,2012-11-10 15:54:00
10:54 AM,71.1,51.1,49,29.55,10.0,SW,12.7,-,N/A,,Clear,230,2012-11-10 16:54:00
11:54 AM,72.0,50.0,46,29.53,9.0,Variable,6.9,-,N/A,,Clear,0,2012-11-10 17:54:00
12:54 PM,78.1,53.1,42,29.49,10.0,South,27.6,32.2,N/A,,Partly Cloudy,190,2012-11-10 18:54:00
1:54 PM,79.0,55.0,44,29.46,10.0,SSW,24.2,35.7,N/A,,Clear,200,2012-11-10 19:54:00
2:54 PM,79.0,55.0,44,29.44,10.0,South,29.9,39.1,N/A,,Clear,180,2012-11-10 20:54:00
3:54 PM,77.0,55.0,47,29.43,10.0,South,31.1,39.1,N/A,,Clear,170,2012-11-10 21:54:00
4:54 PM,73.9,55.0,52,29.44,10.0,South,26.5,34.5,N/A,,Clear,180,2012-11-10 22:54:00
5:54 PM,72.0,55.9,57,29.43,10.0,South,31.1,38.0,N/A,,Clear,170,2012-11-10 23:54:00
6:54 PM,70.0,55.9,61,29.42,10.0,South,32.2,41.4,N/A,,Clear,170,2012-11-11 00:54:00
7:54 PM,70.0,55.9,61,29.42,10.0,South,27.6,38.0,N/A,,Mostly Cloudy,180,2012-11-11 01:54:00
8:25 PM,60.8,48.2,63,29.52,9.0,West,28.8,38.0,N/A,Thunderstorm,Mostly Cloudy,280,2012-11-11 02:25:00
8:44 PM,55.4,51.8,88,29.53,2.0,West,19.6,-,0.08,Rain-Thunderstorm,Light Thunderstorms and Rain,270,2012-11-11 02:44:00
8:52 PM,53.6,51.8,94,29.55,1.5,West,19.6,-,0.17,Rain-Thunderstorm,Heavy Thunderstorms and Rain,270,2012-11-11 02:52:00
8:54 PM,54.0,51.1,90,29.54,1.2,West,20.7,-,0.21,Rain-Thunderstorm,Heavy Thunderstorms and Rain,260,2012-11-11 02:54:00
9:19 PM,50.0,46.4,87,29.60,1.0,NW,18.4,33.4,0.33,Rain-Thunderstorm,Heavy Thunderstorms and Rain,310,2012-11-11 03:19:00
9:33 PM,48.2,46.4,93,29.63,1.5,NW,15.0,21.9,0.45,Rain-Thunderstorm,Heavy Thunderstorms and Rain,320,2012-11-11 03:33:00
9:40 PM,48.2,44.6,87,29.64,1.8,NW,20.7,25.3,0.49,Rain-Thunderstorm,Heavy Thunderstorms and Rain,310,2012-11-11 03:40:00
9:43 PM,46.4,44.6,93,29.64,2.0,NW,20.7,26.5,0.50,Rain-Thunderstorm,Heavy Rain,310,2012-11-11 03:43:00
9:51 PM,46.4,42.8,87,29.65,2.5,NW,20.7,29.9,0.53,Rain,Light Rain,320,2012-11-11 03:51:00
10:54 PM,44.1,41.0,89,29.60,10.0,NNW,16.1,-,0.10,,Mostly Cloudy,330,2012-11-11 04:54:00
10:58 PM,44.6,41.0,87,29.62,10.0,NNW,20.7,25.3,N/A,Thunderstorm,Thunderstorm,330,2012-11-11 04:58:00
11:08 PM,44.6,41.0,87,29.66,1.8,NW,12.7,23.0,0.09,Rain-Thunderstorm,Heavy Thunderstorms and Rain,310,2012-11-11 05:08:00
11:31 PM,41.0,37.4,87,29.67,2.0,NW,19.6,28.8,0.25,Rain,Light Rain,320,2012-11-11 05:31:00
11:34 PM,41.0,37.4,87,29.67,3.0,NW,19.6,28.8,0.25,Rain,Light Rain,310,2012-11-11 05:34:00
11:54 PM,39.0,35.1,86,29.69,10.0,NW,17.3,26.5,0.25,,Overcast,320,2012-11-11 05:54:00